Medford, OR

6:43 PM PDT on March 29, 2017 (GMT -0700)
Rogue Valley International-Medford

Weather History for KMFR - December, 2013

Change the Weather History Date:

Tuesday, December 3, 2013

  Actual Average Record
Temperature  
Mean Temperature 35 °F 40 °F  
Max Temperature 44 °F 47 °F 68 °F (1979)
Min Temperature 25 °F 34 °F 18 °F (1936)
Degree Days  
Heating Degree Days 30 25  
Month to date heating degree days 71 73  
Since 1 July heating degree days 1122 1042  
Cooling Degree Days 0 0  
Month to date cooling degree days 0 0  
Year to date cooling degree days 1057 829  
Moisture  
Dew Point 27 °F    
Average Humidity 77    
Maximum Humidity 100    
Minimum Humidity 53    
Precipitation  
Precipitation 0.00 in 0.12 in 2.21 in (1950)
Month to date precipitation 0.14 0.37  
Year to date precipitation 8.77 15.23  
Snow  
Snow 0.00 in 0.10 in - ()
Month to date snowfall 0.0 0.1  
Since 1 July snowfall 0.0 0.3  
Snow Depth 0.00 in    
Sea Level Pressure  
Sea Level Pressure 30.07 in    
Wind  
Wind Speed 2 mph (NNW)    
Max Wind Speed 13 mph    
Max Gust Speed 16 mph    
Visibility 7 miles    
Events Fog    
T = Trace of Precipitation, MM = Missing Value Source: NWS Daily Summary

Daily Weather History Graph

Daily Weather History Graph

Search for Another Location

Airport or City:

Trip Planner

Search our weather history database for the weather conditions in past years. The results will help you decide how hot, cold, wet, or windy it might be!

Date:

Astronomy

Dec. 03, 2013 Rise Set
Actual Time 7:23 AM PST 4:39 PM PST
Civil Twilight 6:52 AM PST 5:10 PM PST
Nautical Twilight 6:16 AM PST 5:45 PM PST
Astronomical Twilight 5:43 AM PST 6:19 PM PST
Moon 7:57 AM PST (12/3) 5:49 PM PST (12/3)
Length of Visible Light 10h 18m
Length of Day
9h 15m
New Moon, 1% of the Moon is Illuminated
Dec 3
New Moon
Dec 9
First Quarter
Dec 17
Full
Dec 25
Last Quarter
Jan 1
New

Hourly Weather History & Observations

Time (PST) Temp. Windchill Dew Point Humidity Pressure Visibility Wind Dir Wind Speed Gust Speed Precip Events Conditions
12:53 AM 33.1 °F - 30.0 °F 89% 30.06 in 10.0 mi Calm Calm - N/A   Scattered Clouds
1:53 AM 30.0 °F 26.5 °F 28.0 °F 92% 30.07 in 9.0 mi NNE 3.5 mph - N/A   Partly Cloudy
2:53 AM 30.9 °F - 28.9 °F 92% 30.07 in 9.0 mi Calm Calm - N/A   Clear
3:53 AM 28.0 °F - 26.1 °F 92% 30.06 in 6.0 mi Calm Calm - N/A   Clear
4:53 AM 28.9 °F - 27.0 °F 92% 30.06 in 6.0 mi Calm Calm - N/A   Clear
5:21 AM 26.1 °F 21.9 °F 25.0 °F 96% 30.04 in 1.5 mi NE 3.5 mph - N/A   Mostly Cloudy
5:29 AM 26.1 °F 17.6 °F 24.1 °F 92% 30.04 in 0.5 mi NNE 8.1 mph - N/A Fog Light Freezing Fog
5:33 AM 26.1 °F 18.4 °F 24.1 °F 92% 30.05 in 0.8 mi NNE 6.9 mph - N/A   Mostly Cloudy
5:40 AM 27.0 °F 20.5 °F 25.0 °F 92% 30.05 in 1.0 mi NE 5.8 mph - N/A   Overcast
5:45 AM 27.0 °F 23.0 °F 26.1 °F 96% 30.05 in 0.2 mi NNE 3.5 mph - N/A Fog Light Freezing Fog
5:50 AM 28.4 °F - 26.6 °F 93% 30.05 in 0.2 mi Calm Calm - N/A Fog Light Freezing Fog
5:53 AM 28.0 °F - 27.0 °F 96% 30.08 in 0.2 mi Calm Calm - N/A Fog Light Freezing Fog
6:03 AM 28.0 °F - 27.0 °F 96% 30.05 in 0.5 mi Calm Calm - N/A Fog Light Freezing Fog
6:08 AM 28.9 °F - 27.0 °F 92% 30.05 in 1.0 mi Calm Calm - N/A   Overcast
6:15 AM 28.9 °F - 27.0 °F 92% 30.05 in 3.0 mi Calm Calm - N/A   Overcast
6:53 AM 28.9 °F - 28.0 °F 96% 30.09 in 8.0 mi Calm Calm - N/A   Overcast
7:06 AM 28.9 °F - 27.0 °F 92% 30.06 in 7.0 mi Calm Calm - N/A   Overcast
7:53 AM 28.9 °F 22.8 °F 27.0 °F 92% 30.10 in 7.0 mi NNW 5.8 mph - N/A   Overcast
8:53 AM 30.0 °F 25.2 °F 28.0 °F 92% 30.10 in 6.0 mi SW 4.6 mph - N/A   Overcast
9:53 AM 32.0 °F - 30.0 °F 92% 30.12 in 9.0 mi Calm Calm - N/A   Overcast
10:53 AM 35.1 °F - 30.9 °F 85% 30.11 in 10.0 mi Calm Calm - N/A   Overcast
11:53 AM 39.0 °F - 32.0 °F 76% 30.08 in 10.0 mi Calm Calm - N/A   Scattered Clouds
12:53 PM 43.0 °F - 32.0 °F 65% 30.06 in 10.0 mi Calm Calm - N/A   Scattered Clouds
1:53 PM 42.1 °F 39.2 °F 27.0 °F 55% 30.05 in 10.0 mi WNW 4.6 mph - N/A   Scattered Clouds
2:53 PM 42.1 °F 36.1 °F 27.0 °F 55% 30.04 in 10.0 mi West 10.4 mph - N/A   Mostly Cloudy
3:53 PM 41.0 °F 35.2 °F 27.0 °F 57% 30.05 in 10.0 mi West 9.2 mph - N/A   Scattered Clouds
4:53 PM 39.0 °F 36.8 °F 28.0 °F 65% 30.05 in 10.0 mi NNW 3.5 mph - N/A   Mostly Cloudy
5:53 PM 35.1 °F - 27.0 °F 72% 30.06 in 10.0 mi Calm Calm - N/A   Scattered Clouds
6:53 PM 34.0 °F - 26.1 °F 73% 30.08 in 9.0 mi Calm Calm - N/A   Mostly Cloudy
7:53 PM 34.0 °F 31.0 °F 27.0 °F 75% 30.08 in 9.0 mi SW 3.5 mph - N/A   Mostly Cloudy
8:53 PM 30.9 °F 26.2 °F 25.0 °F 79% 30.09 in 9.0 mi SE 4.6 mph - N/A   Scattered Clouds
9:53 PM 30.9 °F - 25.0 °F 79% 30.10 in 10.0 mi Calm Calm - N/A   Clear
10:53 PM 28.0 °F 24.2 °F 23.0 °F 81% 30.11 in 10.0 mi NNE 3.5 mph - N/A   Clear
11:53 PM 28.9 °F 25.2 °F 19.9 °F 69% 30.13 in 10.0 mi NW 3.5 mph - N/A   Clear